Showing default

ORBCOMM FM 18, 25414

Orbit data source: Space-Track

ORBCOMM FM 18, 25414 is a payload satellite owned by Orbcomm (US) in LEO that was launched on Sun, 02 Aug 1998 UTC via a PEGASUS XL/HAPS launch vehicle from the Pegasus Launch, Eastern Range Air Space (ERAS). Payload-class satellites include a variety of spacecraft equipped with specific instruments for various scientific and technological missions. These include communications satellites like Starlink; space stations such as the ISS; scientific satellites like the Hubble; Earth observation satellites from companies like Planet Labs, Umbra, and HawkEye 360; GPS; miniature CubeSats for education and research; and military/defense satellites.

Loading next visibility...
Identifier
25414, 1998-046B
Orbit
LEO
Country
Flag of USUS / ORB
Related business
Manufacturer
OSC-Germantown
Mission
Non-operational Commercial Communications
Bus & Motor
MICROSTAR, Unknown motor
Mass
42 kg wet, 42 kg dry
Launch date (UTC)
1998-08-02 (28 years ago)
Launch vehicle
PEGASUS XL/HAPS
Launch site
Pegasus Launch, Eastern Range Air Space (ERAS)
Object type
Payload
Rocket body
Debris
Shape & HBR
Cyl + 2 Pan, 4.2 m
Radar Cross Section
1.484 m², Medium (>0.1 m² and < 1m²)

Expand to show TLE details & history
Last TLE update: 18 hours ago

TLE from 18 hours ago
0 ORBCOMM FM 18
1 25414U 98046B   26127.55056478  .00000913  00000-0  33509-3 0  9997
2 25414  44.9925  74.2236 0002836  98.2916 261.8254 14.39584344450977
Epoch: 2026-05-07T13:12Z
TLE epoch observation values (Epoch: 2026-05-07T13:12:48.796Z)
Latitude
-0.00006°
Longitude
10.62513°
Altitude
760.158 km
Speed
7.476 km/s
True Right ascension
04h 56m 53s
True Declination
0° 00' 00"
Sunlit
Object was in daylight at epoch
Visualization orbit readout
Latitude
Unknown
Longitude
Unknown
Altitude
Unknown
Speed
Unknown
Apparent Right ascension
Unknown
Apparent Declination
Unknown
Sunlit
N/A
Visualization observer readout
Local Sidereal Time
14:55:39
Azimuth
Unknown
Elevation
Unknown
Doppler factor
Unknown
Orbital elements
Apogee altitude
763.445 km
Perigee altitude
759.396 km
Semi-major axis
7,139.557 km
Eccentricity
0.00028
Inclination
44.9925°
RAAN
74.2236°
Arg. of periapsis
98.2916°
True anomaly
261.79323°
Mean anomaly
261.8254°
Eccentric anomaly
261.80932°
Mean motion
3.59779 °/min
Orbital period
100.06 mins
BSTAR
0.00033509
Loading maneuver chart data...
Computing Atmospheric mass density...

Documentation

Showing up to 5 results
|